Temperature
16 17 17 17 17 17 17 17 17 16 16 16 16 16 16 16 16 16 16 16 16 16 16 16 16 16 16 16 16 16 16 16 16 16 16 16 16 16 16 15 15 15 15
17 17 17 17 17 17 17 16 16 16 16 16 16 16 16 16 16 16 16 16 16 16 16 16 16 16 16 16 16 16 16 16 16 16 15 15 15 15 15 15 15 15 15
17 17 17 17 16 16 16 16 16 16 16 16 16 16 16 16 16 16 16 16 16 16 16 16 16 16 16 16 16 16 16 16 15 15 15 15 15 15 15 15 15 15 15
16 16 16 16 16 16 16 16 16 16 16 16 16 16 16 16 16 16 15 15 15 15 15 15 15 15 16 16 16 16 15 15 15 15 14 14 15 15 15 15 15 15 15
15 16 16 16 16 16 16 16 16 16 16 16 16 16 15 15 15 15 15 15 15 15 15 15 15 15 15 15 15 15 15 15 15 15 14 14 14 15 15 15 15 15 15
15 15 16 16 16 16 16 16 16 15 15 15 15 15 15 15 15 15 15 15 15 15 15 15 15 15 15 15 15 15 15 15 15 14 14 14 14 14 15 15 15 15 15
15 15 15 15 15 16 15 15 15 15 15 15 15 15 15 15 15 15 15 15 14 15 15 15 15 15 15 15 15 15 15 14 14 14 14 14 14 14 15 15 15 15 15
14 14 15 15 15 15 15 15 15 15 15 15 15 15 15 14 14 14 14 14 14 14 14 15 15 15 15 14 14 14 14 14 14 14 14 14 14 14 14 14 15 14 14
14 14 14 14 15 15 15 15 15 15 15 15 14 14 14 14 14 14 14 14 14 14 14 14 14 14 14 14 14 14 14 14 14 14 14 14 14 14 14 14 14 14 14
14 14 14 14 14 14 14 14 14 14 14 14 14 14 14 14 14 14 14 14 14 14 14 14 14 14 14 14 14 14 13 13 13 13 13 13 13 14 14 14 14 14 14
13 13 13 14 14 14 14 14 14 14 14 14 14 14 14 14 13 14 14 14 14 14 14 14 14 14 14 14 13 13 13 13 13 13 13 13 13 13 13 14 13 14 14
13 13 13 13 13 13 13 13 14 13 13 13 13 13 13 13 13 13 13 13 13 13 13 14 14 13 13 13 13 13 13 13 13 13 13 13 13 13 13 13 13 13 13
12 12 12 13 13 13 13 13 13 13 13 13 13 13 13 13 13 13 13 13 13 13 13 13 13 13 13 13 13 12 12 12 12 12 12 12 13 13 13 13 13 13 13
12 12 12 12 13 13 13 13 12 12 12 13 13 13 13 13 13 13 13 13 13 13 13 13 13 13 12 12 12 12 12 12 12 12 12 12 12 12 12 12 12 12 12
12 12 12 12 12 12 12 12 12 12 12 12 12 12 12 13 12 12 12 12 12 12 12 12 12 12 12 12 12 12 12 12 12 12 12 12 12 12 12 12 11 11 11
11 11 12 12 12 12 12 12 12 12 12 12 12 12 12 12 12 12 12 12 12 12 12 12 12 12 12 12 12 12 12 11 11 11 11 11 11 11 11 11 11 11 11
11 11 11 11 11 11 11 11 11 12 12 12 12 12 12 12 12 12 12 12 12 12 12 12 12 12 11 11 11 11 11 11 11 11 11 11 11 11 11 11 11 11 11
11 11 11 11 11 11 11 11 11 11 11 11 11 12 12 12 12 12 12 12 12 12 12 11 11 11 11 11 11 11 11 11 11 11 11 11 10 10 10 10 10 10 10
11 11 11 11 11 11 10 10 11 11 11 11 11 11 11 11 11 11 11 11 11 11 11 11 11 11 11 11 11 11 11 11 10 10 10 10 10 10 10 10 10 10 10
10 10 10 10 10 10 10 10 10 10 10 11 11 11 11 11 11 11 11 11 11 11 11 11 11 10 10 10 10 10 10 10 10 10 10 10 10 9 9 9 9 9 9
10 10 10 10 10 10 10 10 10 10 10 10 10 11 11 11 11 11 11 10 10 10 10 10 10 10 10 10 10 10 10 10 9 9 9 9 9 9 9 9 8 8 8
9 10 9 10 10 10 10 9 9 10 10 10 10 10 10 10 10 10 10 10 10 10 10 9 9 9 9 9 8 8 8 8 9 9 9 9 8 8 8 8 8 8 8
9 9 9 9 9 9 9 9 9 9 9 9 9 10 10 10 10 10 10 10 10 9 9 9 9 9 9 8 8 7 7 7 7 8 8 8 8 8 8 8 8 7 7
9 9 9 9 9 9 9 9 9 9 9 9 9 9 9 9 9 9 9 9 9 9 9 9 8 8 8 8 8 7 7 7 6 6 7 7 7 7 7 7 7 7 7
8 9 9 9 9 9 9 9 8 8 8 8 8 8 8 8 8 9 9 9 9 8 8 8 8 8 8 7 7 7 7 6 6 6 6 6 6 7 6 6 6 6 6
8 8 8 9 9 9 8 8 8 8 8 8 8 8 8 8 8 8 8 8 8 8 8 8 8 7 7 7 7 7 6 6 6 5 5 5 5 6 6 6 6 6 6
Wind_Speed
9 13 15 13 13 12 11 11 10 10 9 9 8 8 8 8 8 8 8 8 8 8 8 8 8 8 8 8 7 7 7 7 7 7 7 7 7 6 6 6 7 7 8
12 15 16 14 13 12 12 11 10 10 9 9 8 8 8 8 8 8 8 7 7 8 7 7 7 7 7 7 7 6 6 5 4 4 4 5 5 5 5 6 6 5 6
13 15 15 14 13 12 11 11 10 9 9 9 8 8 7 7 7 7 7 7 7 7 7 7 6 6 6 6 6 5 4 3 2 0 1 2 4 4 4 4 4 4 4
12 14 14 14 12 12 11 10 9 9 8 8 8 7 7 7 7 6 6 6 6 6 6 6 6 6 5 5 4 4 3 2 3 3 3 2 3 4 4 3 2 2 2
10 13 13 13 12 11 11 10 9 8 8 8 7 7 7 6 6 6 6 6 6 5 5 5 5 4 4 4 3 2 2 3 5 5 3 0 3 4 3 2 1 0 0
9 13 13 13 11 11 10 10 9 8 8 7 7 6 6 6 6 6 6 5 5 5 4 4 4 4 4 3 2 2 3 5 7 6 3 0 3 4 2 1 0 1 1
8 11 12 12 11 10 9 9 9 8 7 7 6 6 6 6 6 5 5 5 5 4 3 3 3 3 3 2 2 2 4 7 7 6 3 2 3 3 1 1 2 2 3
8 10 12 11 11 10 9 9 8 8 7 7 7 6 6 6 6 6 6 6 5 4 4 3 3 3 2 2 2 3 5 7 7 5 2 2 3 1 1 2 3 3 3
7 7 9 10 11 10 9 9 8 8 8 7 7 6 6 5 6 6 6 5 4 3 3 3 3 3 2 2 3 4 6 8 8 6 3 2 2 0 2 3 3 3 3
5 5 6 7 8 9 9 9 9 9 8 7 7 6 5 5 5 6 6 5 4 3 3 2 2 2 3 4 5 6 7 8 8 5 2 1 1 1 2 2 3 4 4
4 3 4 5 6 7 8 8 8 8 8 7 6 6 5 4 4 5 5 5 3 2 1 1 2 3 4 5 7 7 7 6 5 2 2 1 1 0 1 2 3 4 4
4 3 3 4 4 5 6 7 7 6 6 5 5 4 2 3 3 4 4 4 3 2 1 2 4 5 5 5 5 6 5 4 3 2 2 2 1 1 1 2 2 3 4
4 3 3 3 4 4 4 4 4 4 4 4 4 3 3 3 2 3 3 2 1 1 1 3 4 4 3 3 3 3 3 3 2 2 2 2 1 1 2 2 3 3 4
5 3 4 3 3 4 4 3 3 3 3 4 4 3 3 2 2 2 2 2 1 2 2 3 4 4 4 4 4 3 3 3 3 3 2 2 1 1 2 3 3 4 5
5 4 3 3 3 4 3 2 3 3 3 4 4 4 4 2 2 2 2 3 3 3 2 3 3 3 4 4 4 3 3 3 2 2 2 2 2 2 2 3 4 5 6
4 4 3 3 4 4 3 2 3 3 3 4 4 4 4 4 3 2 2 2 3 3 3 3 3 2 2 2 3 3 3 3 2 2 1 1 1 1 2 4 5 5 6
4 4 4 4 4 4 3 3 4 3 3 3 3 4 4 4 3 2 1 1 2 3 3 3 3 2 2 2 3 3 3 3 3 2 2 1 1 1 2 4 4 5 6
5 5 4 3 4 4 3 3 3 3 4 3 4 4 4 4 4 2 2 1 3 3 3 1 2 2 2 2 2 2 2 2 2 2 2 2 2 2 3 3 4 5 6
5 5 4 4 4 4 3 3 3 3 3 3 4 4 4 4 4 3 2 2 3 2 2 2 2 2 1 2 2 2 2 2 2 2 2 2 2 2 2 3 4 4 5
5 5 5 4 3 4 3 2 2 2 2 3 3 3 3 3 4 3 2 3 3 2 2 2 1 2 1 2 3 2 2 2 1 1 1 2 2 2 3 3 3 4 4
5 5 4 4 3 2 2 2 2 1 1 1 2 3 3 3 3 2 1 2 2 2 2 2 2 2 1 2 2 2 2 2 0 0 0 1 1 3 4 4 4 4 4
4 4 4 4 3 2 2 2 1 2 1 1 1 2 2 2 3 2 2 1 1 1 2 2 2 1 1 1 1 1 2 2 2 1 1 1 1 2 2 3 3 4 4
4 4 3 3 3 2 3 2 2 2 1 1 1 1 1 1 2 2 2 2 2 1 1 1 1 1 1 1 0 0 0 2 2 2 2 1 1 2 2 2 2 3 4
4 4 3 3 3 3 3 3 3 2 1 1 1 1 0 0 1 1 1 1 1 1 1 1 1 1 1 2 1 1 1 1 1 2 2 2 2 2 2 3 2 2 4
4 4 3 3 3 3 3 3 2 1 1 1 1 1 0 0 0 0 1 1 1 1 1 1 1 1 1 2 1 1 2 2 2 2 4 3 3 2 2 3 2 2 3
5 4 3 3 3 3 2 2 2 2 2 1 1 1 1 1 1 1 1 1 1 1 1 1 1 2 1 1 1 1 1 1 2 2 3 4 4 3 3 2 2 2 2
Wind_Direction
118 124 133 130 125 119 114 112 114 113 110 109 107 103 98 96 93 91 91 89 88 85 81 78 74 71 69 69 71 69 68 70 73 77 78 78 79 76 68 64 70 72 80
123 127 133 130 127 122 117 113 111 112 111 109 108 106 102 100 98 96 94 91 91 88 83 79 75 72 71 67 69 71 71 69 76 89 97 96 97 90 77 68 66 65 74
123 129 131 130 128 125 121 116 112 113 113 111 109 108 106 104 103 100 97 91 87 85 82 79 72 71 69 67 65 64 66 59 47 29 185 156 132 122 105 89 75 68 67
121 123 127 130 130 128 124 121 117 115 116 117 115 111 109 109 108 103 99 92 87 82 80 76 72 70 64 64 61 57 48 8 332 301 264 180 134 124 128 116 94 72 65
114 118 124 129 130 129 128 126 124 121 118 119 119 116 113 111 109 105 101 93 87 82 84 78 72 67 62 57 51 38 4 325 306 298 290 118 105 124 130 125 100 57 41
112 115 125 130 128 130 131 130 128 126 123 121 122 119 116 112 107 103 100 95 89 83 81 73 65 60 56 45 30 6 335 316 303 289 277 190 107 129 127 132 314 281 288
110 114 125 131 132 130 132 133 132 129 129 126 122 121 118 113 108 102 97 93 89 81 74 62 53 40 34 22 357 332 316 313 296 295 329 67 101 115 110 280 293 282 281
108 116 128 131 132 131 129 132 133 131 126 124 121 119 119 115 111 107 98 92 87 79 70 55 38 18 7 355 332 313 305 306 305 305 322 67 105 107 355 323 308 302 296
101 117 131 137 134 131 128 130 130 127 124 122 120 116 118 122 120 114 101 92 85 74 64 50 32 11 345 321 304 297 294 293 298 297 312 55 75 32 305 294 295 307 309
102 111 122 131 131 133 127 122 128 128 130 129 127 129 130 136 135 127 110 101 90 76 59 40 13 347 325 297 281 280 282 286 285 294 333 28 38 308 298 297 297 298 301
112 108 120 125 126 129 131 131 134 139 141 141 142 146 149 147 133 125 124 123 113 99 64 7 330 307 292 279 265 266 277 271 283 315 16 50 57 21 302 296 297 300 302
134 136 128 120 123 124 133 144 144 146 143 145 134 138 129 104 112 122 144 154 167 197 247 282 296 285 283 277 271 264 275 278 296 348 23 73 74 28 334 317 316 309 310
124 125 112 106 119 119 116 125 116 120 131 115 102 97 86 83 94 114 132 147 206 223 308 305 292 293 306 310 302 275 294 326 338 3 31 78 54 1 345 334 329 322 317
106 108 109 101 103 108 106 108 120 104 95 89 84 69 61 56 56 60 58 54 26 12 350 326 311 318 325 324 329 340 340 351 359 13 34 82 71 5 333 324 321 320 318
112 109 112 112 96 88 93 101 96 85 78 89 83 70 62 59 41 40 43 37 21 6 359 335 325 337 334 335 341 350 349 355 3 2 38 77 55 2 332 321 317 316 314
125 123 117 117 105 94 87 98 88 88 88 80 76 69 62 59 47 31 25 29 14 359 348 331 329 322 321 343 339 341 340 352 7 355 35 69 44 350 337 324 319 315 314
126 122 122 115 109 103 89 81 82 83 85 78 72 64 58 53 39 29 22 18 356 342 341 340 334 337 342 346 339 346 350 352 346 353 27 50 32 19 345 339 341 334 327
121 118 115 115 114 101 87 81 76 71 67 66 63 59 50 39 22 20 24 6 346 353 353 330 333 346 353 350 337 328 331 335 337 352 19 33 36 38 19 1 352 344 339
114 111 102 98 113 109 92 82 75 75 72 66 64 56 42 35 22 26 2 352 352 355 351 326 358 350 343 343 320 314 314 309 314 352 27 42 46 46 33 3 0 351 344
114 109 106 101 105 112 111 101 83 67 68 74 70 64 37 24 21 18 357 355 358 356 344 337 335 345 351 326 320 324 304 289 302 343 354 36 39 38 47 28 20 9 353
114 111 112 117 117 117 123 120 119 120 89 72 71 64 39 17 10 16 14 4 5 353 333 335 347 358 360 360 355 326 300 272 169 41 31 39 37 34 36 25 24 14 3
117 116 122 125 122 124 110 101 98 93 85 90 70 62 40 15 7 8 12 3 358 349 346 350 355 355 346 19 4 320 321 319 345 345 2 21 32 36 21 8 21 15 7
133 131 133 126 128 125 109 97 82 69 57 66 82 57 12 25 23 14 357 359 352 349 333 334 347 351 311 297 10 86 281 276 311 287 290 350 18 355 338 341 1 2 355
143 134 127 128 137 137 127 131 142 154 166 190 156 115 69 84 45 16 348 344 338 337 333 323 3 331 274 270 294 279 225 218 263 296 298 310 326 323 322 324 323 325 335
140 135 133 137 149 137 132 142 146 157 163 145 125 116 78 318 146 355 335 341 344 339 332 329 319 320 261 251 260 284 274 275 237 245 277 289 297 278 290 297 279 287 310
136 132 137 145 146 135 141 141 156 177 175 164 187 184 194 226 268 268 258 272 286 291 291 285 287 283 284 262 259 265 257 254 257 252 269 286 288 279 274 267 271 266 288
Height
1510 1512 1515 1516 1518 1520 1522 1523 1524 1526 1527 1528 1529 1530 1530 1531 1532 1533 1534 1534 1535 1536 1537 1537 1538 1538 1539 1539 1539 1540 1540 1540 1540 1541 1541 1541 1542 1542 1542 1542 1542 1542 1542
1509 1511 1514 1516 1518 1520 1521 1523 1524 1526 1527 1528 1529 1529 1530 1531 1532 1533 1534 1534 1535 1536 1537 1537 1538 1538 1539 1539 1539 1540 1540 1540 1541 1541 1542 1542 1542 1542 1542 1542 1542 1542 1542
1509 1511 1513 1515 1517 1519 1521 1523 1524 1525 1526 1528 1528 1529 1530 1531 1532 1533 1533 1534 1535 1536 1536 1537 1537 1538 1538 1539 1539 1540 1540 1541 1541 1541 1542 1542 1542 1542 1543 1543 1543 1543 1542
1509 1510 1513 1515 1517 1519 1521 1522 1524 1525 1526 1527 1528 1529 1530 1531 1532 1532 1533 1534 1535 1535 1536 1537 1537 1537 1538 1538 1539 1539 1540 1540 1541 1541 1542 1542 1542 1542 1543 1543 1543 1543 1543
1509 1510 1513 1515 1517 1519 1520 1522 1523 1524 1526 1527 1528 1529 1530 1531 1531 1532 1533 1534 1534 1535 1536 1536 1537 1537 1537 1538 1538 1539 1539 1540 1540 1541 1541 1542 1542 1542 1542 1542 1542 1542 1542
1509 1510 1513 1515 1517 1518 1520 1521 1523 1524 1525 1526 1527 1528 1529 1530 1531 1532 1532 1533 1534 1535 1535 1536 1536 1536 1537 1537 1537 1538 1538 1539 1540 1540 1541 1541 1541 1541 1541 1541 1541 1542 1542
1509 1510 1513 1515 1516 1518 1519 1521 1522 1524 1525 1526 1527 1528 1529 1530 1531 1531 1532 1533 1533 1534 1534 1535 1535 1535 1536 1536 1536 1537 1537 1538 1538 1539 1540 1540 1540 1540 1540 1540 1540 1541 1541
1509 1510 1512 1514 1516 1517 1519 1520 1522 1523 1524 1525 1526 1528 1529 1529 1530 1531 1532 1532 1533 1533 1534 1534 1534 1535 1535 1535 1536 1536 1536 1537 1537 1538 1538 1538 1539 1539 1539 1539 1539 1539 1539
1509 1510 1512 1514 1515 1517 1518 1520 1521 1523 1524 1525 1526 1527 1528 1529 1530 1530 1531 1532 1532 1533 1533 1533 1533 1534 1534 1534 1534 1535 1535 1536 1536 1537 1537 1537 1537 1537 1537 1537 1537 1537 1537
1509 1510 1511 1513 1514 1516 1518 1519 1521 1522 1523 1524 1526 1527 1528 1528 1529 1530 1531 1531 1532 1532 1532 1532 1533 1533 1533 1533 1533 1534 1534 1534 1535 1535 1535 1535 1535 1535 1535 1535 1535 1535 1535
1508 1510 1511 1512 1514 1515 1517 1518 1520 1521 1522 1524 1525 1526 1527 1528 1529 1529 1530 1530 1531 1531 1531 1531 1532 1532 1532 1532 1532 1532 1533 1533 1533 1533 1533 1533 1533 1533 1533 1533 1533 1533 1533
1507 1509 1510 1511 1512 1514 1516 1517 1519 1520 1522 1523 1524 1525 1526 1527 1528 1528 1529 1529 1530 1530 1530 1530 1530 1530 1530 1530 1531 1531 1531 1531 1531 1531 1531 1531 1531 1531 1531 1531 1531 1530 1530
1506 1508 1509 1510 1511 1513 1514 1516 1518 1519 1521 1522 1524 1525 1526 1526 1527 1527 1527 1528 1528 1528 1528 1528 1528 1528 1529 1529 1529 1529 1529 1529 1529 1529 1529 1529 1529 1529 1528 1528 1528 1528 1528
1505 1507 1508 1509 1510 1512 1513 1515 1517 1518 1520 1521 1522 1523 1524 1525 1525 1526 1526 1526 1526 1526 1527 1526 1526 1526 1527 1527 1527 1527 1527 1527 1527 1527 1527 1527 1527 1526 1526 1525 1525 1525 1525
1504 1505 1507 1508 1508 1510 1512 1514 1516 1517 1519 1520 1521 1522 1523 1523 1524 1524 1524 1524 1525 1525 1525 1525 1524 1525 1525 1525 1525 1525 1525 1524 1524 1525 1524 1524 1524 1523 1523 1523 1522 1522 1522
1502 1504 1505 1507 1508 1509 1511 1513 1514 1516 1517 1518 1519 1520 1521 1522 1522 1522 1523 1523 1523 1523 1523 1523 1523 1523 1522 1522 1522 1522 1522 1522 1522 1522 1522 1521 1521 1521 1520 1520 1520 1519 1518
1500 1502 1504 1505 1506 1508 1510 1511 1512 1514 1516 1517 1518 1518 1519 1520 1520 1521 1521 1521 1521 1521 1521 1521 1521 1520 1520 1520 1520 1520 1520 1520 1520 1519 1519 1519 1519 1518 1518 1517 1517 1516 1515
1499 1500 1501 1503 1505 1506 1508 1509 1511 1512 1514 1515 1516 1516 1517 1518 1518 1519 1519 1519 1519 1519 1518 1518 1518 1518 1518 1517 1517 1517 1517 1517 1517 1517 1517 1516 1516 1515 1515 1514 1514 1513 1512
1498 1499 1499 1502 1503 1504 1506 1508 1510 1511 1512 1513 1514 1514 1515 1516 1516 1516 1517 1517 1517 1517 1516 1516 1516 1516 1515 1515 1515 1514 1514 1514 1514 1514 1514 1514 1513 1513 1512 1511 1511 1510 1509
1497 1498 1499 1501 1502 1503 1505 1507 1508 1510 1510 1511 1512 1512 1513 1513 1514 1514 1514 1514 1514 1514 1514 1514 1514 1514 1513 1513 1512 1512 1512 1512 1512 1512 1512 1511 1511 1510 1509 1509 1508 1507 1506
1496 1497 1498 1500 1500 1501 1503 1504 1506 1507 1508 1509 1510 1511 1511 1511 1512 1512 1512 1512 1512 1512 1511 1511 1511 1511 1511 1510 1510 1509 1509 1509 1509 1509 1509 1509 1508 1508 1507 1506 1505 1504 1503
1495 1496 1497 1498 1499 1500 1501 1503 1504 1505 1506 1507 1507 1508 1509 1509 1509 1509 1510 1509 1510 1509 1509 1509 1509 1509 1509 1509 1508 1507 1506 1507 1506 1507 1507 1506 1506 1505 1504 1504 1503 1502 1500
1493 1494 1495 1496 1498 1499 1500 1501 1503 1504 1504 1505 1505 1506 1507 1507 1507 1507 1507 1507 1507 1507 1506 1506 1506 1506 1506 1507 1507 1507 1506 1505 1504 1503 1504 1504 1503 1503 1502 1501 1500 1499 1497
1492 1493 1495 1496 1497 1498 1498 1500 1501 1502 1502 1503 1503 1503 1504 1504 1504 1504 1504 1504 1504 1504 1504 1504 1504 1504 1504 1504 1504 1504 1505 1504 1503 1500 1500 1500 1500 1499 1498 1497 1496 1495 1494
1491 1492 1493 1495 1496 1496 1497 1498 1499 1500 1500 1501 1501 1501 1502 1502 1502 1501 1501 1501 1501 1501 1501 1501 1501 1501 1501 1501 1501 1501 1501 1501 1500 1500 1497 1496 1496 1496 1495 1494 1493 1492 1491
1490 1491 1492 1493 1494 1495 1496 1496 1497 1498 1498 1498 1499 1499 1499 1499 1499 1499 1498 1499 1499 1498 1498 1498 1498 1497 1497 1497 1497 1497 1497 1497 1497 1496 1495 1493 1492 1491 1491 1490 1489 1488 1487